GFSCGP_con_3kmhel_000.txt.gz
Helicity
-77 -53 -27 14 -10 41 19 6 17 1 11 6 -1 58 51 79 35 46 30 12 -8 -20 -29 -26 3 20 24 16 22 28 35 39 29 28 25 21 23 28 28 26 24 29 42 51
-70 -39 -15 -23 -10 -11 -23 -18 1 65 6 -7 33 49 61 78 67 44 50 32 8 -3 -0 -11 3 8 7 6 15 32 50 57 43 38 34 32 32 32 41 47 51 65 80 83
-20 7 6 -35 -14 -8 -16 -17 8 9 37 4 37 47 69 68 84 81 26 39 24 12 13 4 1 10 -7 6 18 45 60 68 62 67 63 33 10 9 19 57 62 101 64 71
-54 50 -22 -10 -0 -8 23 -0 11 48 53 35 40 8 90 115 90 79 73 45 43 43 21 13 18 18 28 27 38 63 81 93 105 89 106 90 49 39 85 53 70 55 63 68
-2 -35 -28 -21 -3 -17 52 39 40 30 9 72 43 -3 49 79 118 101 36 53 40 38 55 49 45 58 68 72 83 92 103 117 116 129 116 89 73 75 59 49 53 56 66 71
55 8 -17 15 26 18 45 80 57 20 18 2 7 33 -19 95 51 33 24 36 50 49 46 50 68 106 91 86 98 97 89 99 106 129 132 103 70 51 48 65 48 54 50 62
47 20 44 34 96 47 28 33 40 20 38 -5 98 48 1 44 15 -27 47 76 91 58 56 88 131 112 114 111 114 87 83 91 87 124 141 107 63 50 39 39 43 45 50 59
6 56 53 17 37 45 9 7 -9 32 9 17 70 28 25 41 56 23 22 62 77 69 72 94 111 101 112 120 115 93 76 83 90 124 121 95 62 43 45 58 50 52 61 63
-4 20 82 26 48 6 41 10 11 40 34 25 25 45 22 49 41 41 44 52 120 119 69 85 107 109 130 145 122 99 78 81 93 117 111 92 66 51 54 49 46 44 50 48
32 19 38 70 63 72 18 45 36 27 19 20 65 29 36 36 4 18 41 57 128 146 56 71 99 112 139 150 129 103 76 85 93 114 100 89 67 62 59 46 39 37 40 34
26 15 98 81 41 27 80 50 28 22 39 15 20 38 60 27 22 2 7 36 64 105 83 77 96 126 137 156 136 109 74 80 88 117 99 82 67 65 65 52 41 41 42 31
33 56 43 31 113 69 10 26 53 13 74 37 35 11 64 32 52 27 9 29 48 76 91 84 125 140 169 172 139 102 75 76 73 100 110 78 73 70 64 51 36 36 39 34
57 71 41 81 76 51 43 42 14 21 16 32 13 22 50 64 67 55 46 58 61 65 88 122 153 186 202 180 149 95 85 64 48 104 92 92 88 84 67 50 40 35 30 32
59 28 39 54 35 37 51 33 30 18 36 31 63 17 24 69 75 68 76 53 70 84 125 161 158 229 206 186 159 112 97 52 61 80 83 98 105 80 57 48 41 34 35 34
54 62 47 15 20 33 33 44 40 34 24 22 30 74 54 103 61 76 78 79 81 107 125 174 233 282 232 198 171 145 92 71 67 78 76 80 87 69 52 45 42 37 41 43
89 84 76 51 76 57 56 37 70 60 63 127 104 90 84 83 31 34 35 74 67 57 85 128 237 229 199 188 175 141 79 78 74 74 78 72 63 50 44 43 48 43 40 43
61 76 75 48 65 76 73 81 98 102 135 115 108 79 127 66 55 56 52 51 43 32 53 110 151 180 161 168 170 107 89 82 77 88 76 66 58 48 42 43 44 42 45 37
68 64 65 81 112 94 106 126 50 84 68 78 113 92 62 50 50 31 17 21 24 32 41 68 74 112 124 128 135 94 96 100 91 83 73 55 51 50 61 65 48 42 43 40
99 72 76 110 98 68 94 101 123 101 76 50 79 57 35 52 25 25 43 34 34 58 80 49 55 91 97 140 90 99 110 111 105 81 71 53 56 54 53 67 65 63 56 42
89 111 132 99 107 73 60 93 97 158 127 38 67 45 35 37 3 116 68 33 47 60 49 63 50 63 112 81 74 100 149 143 130 106 85 64 69 58 61 71 72 71 60 45
103 100 116 90 110 72 155 111 91 107 95 120 67 31 35 37 23 74 86 60 57 55 63 50 64 80 62 63 91 145 172 202 132 103 114 115 93 76 84 88 91 73 72 59
91 97 87 81 97 87 99 101 96 122 114 117 66 45 42 43 59 68 77 75 64 67 83 86 95 61 49 100 151 172 213 175 148 135 156 145 145 108 57 159 113 105 95 86
116 157 97 146 113 156 135 162 144 129 106 67 90 73 55 29 56 82 106 103 119 112 105 97 79 65 95 169 181 173 112 129 185 234 158 174 117 104 125 134 134 116 126 92
109 133 161 164 124 136 123 85 67 63 62 57 44 8 17 50 89 132 151 150 155 150 136 126 97 93 139 183 156 151 140 258 198 178 178 159 88 125 144 136 126 149 162 112
153 132 175 149 106 123 82 168 168 107 58 27 17 12 33 75 132 153 170 162 181 183 165 121 120 159 212 240 245 195 159 130 141 154 146 77 62 93 171 169 192 160 193 110
107 149 133 152 156 177 180 165 113 87 83 45 30 41 66 98 154 150 145 180 147 137 113 126 157 193 209 211 210 204 171 146 133 101 82 90 107 128 118 151 190 313 178 126

GFSCGP_con_3kmhel_003.txt.gz
Helicity
-35 -37 -18 -1 -3 28 33 21 -5 38 60 22 13 61 85 50 58 64 83 81 59 15 28 12 1 4 12 11 34 31 24 36 27 25 24 26 23 28 20 25 14 27 31 35
-11 -28 -7 -3 -35 -1 43 7 -12 49 58 15 40 72 62 63 40 57 72 52 73 49 45 37 26 24 23 17 24 27 32 38 29 49 37 37 26 35 43 44 38 0 40 109
-2 0 -15 -28 -17 -32 -20 8 -10 41 55 -8 106 8 95 46 64 49 47 50 54 74 82 47 29 24 16 23 17 36 40 48 37 45 72 57 23 21 19 46 77 110 123 80
-29 -17 -12 -22 -23 -14 3 -17 -4 21 29 46 16 12 98 54 49 94 73 77 46 69 29 47 56 39 23 35 20 35 37 55 65 62 99 99 51 41 84 64 91 70 47 67
-22 7 -2 -13 -14 10 -16 22 -13 -19 17 -5 83 -16 186 50 19 114 77 46 37 54 24 23 31 62 43 70 52 52 76 71 101 94 79 100 94 59 67 66 60 46 47 46
-29 25 -8 -9 -18 3 65 6 14 -7 -31 14 27 22 81 123 52 86 84 25 42 51 30 14 31 88 88 89 96 86 80 79 79 72 100 100 74 59 42 71 46 40 49 60
-37 19 -2 -32 22 56 -1 9 1 1 8 -3 39 -9 13 63 42 41 88 72 50 45 41 28 45 134 155 117 135 110 98 82 64 66 89 82 75 55 31 31 42 60 50 67
-9 22 -19 -4 8 47 -24 -2 -55 46 0 30 97 47 21 37 89 58 13 80 37 65 32 47 52 154 136 135 147 142 123 85 52 63 77 87 72 46 45 50 65 50 75 65
16 19 23 18 -19 34 38 -39 -22 26 47 1 34 57 46 82 59 50 37 20 86 92 66 36 68 153 132 129 152 162 143 87 50 80 90 91 74 51 42 60 60 47 71 45
39 16 79 5 3 11 31 27 -4 6 7 6 17 40 43 71 21 25 28 36 20 91 135 35 52 136 126 120 147 159 157 102 66 72 83 86 112 80 58 56 55 52 48 39
29 34 82 36 30 34 17 -1 -12 -13 18 24 18 37 79 41 47 22 19 28 30 22 181 68 54 109 133 127 164 167 169 126 87 97 77 80 90 83 85 60 58 53 45 40
23 32 1 83 37 -8 -6 54 5 10 32 20 21 30 52 33 37 30 22 38 16 23 120 68 62 92 138 134 162 164 158 146 103 105 95 65 88 88 79 64 52 44 40 39
31 39 38 16 40 40 25 -20 36 31 5 65 24 42 107 53 55 57 22 24 80 38 114 79 45 110 201 148 189 173 161 136 105 133 91 66 83 94 74 61 52 44 41 37
70 23 53 25 23 60 50 7 10 -5 18 15 63 43 59 48 57 50 20 39 18 88 79 113 87 149 209 185 226 182 150 128 120 108 82 97 122 99 62 58 59 51 47 44
44 44 35 7 17 45 38 57 22 0 19 19 23 76 17 73 96 106 61 50 62 51 70 126 147 162 278 274 286 166 161 141 98 119 85 92 111 89 61 53 47 47 49 52
55 52 25 18 13 16 14 25 43 41 30 25 20 37 67 65 74 73 67 76 66 61 66 65 125 151 252 307 266 172 161 129 99 72 84 86 85 80 57 42 40 46 43 49
56 60 48 25 15 12 57 48 26 29 42 43 32 61 127 120 126 104 118 94 85 45 73 81 98 127 306 259 222 151 155 107 88 85 87 62 78 63 54 33 50 58 64 51
62 49 58 50 25 39 70 48 61 34 47 69 61 73 75 64 41 76 86 70 54 30 57 88 61 89 218 168 114 124 114 95 93 105 73 59 75 83 81 69 52 71 94 81
59 116 60 65 40 85 55 95 78 65 34 59 77 59 64 31 68 20 63 71 47 27 45 86 73 99 146 72 109 129 81 100 96 92 85 88 92 108 112 94 93 90 96 90
46 58 129 55 62 58 37 79 133 80 82 56 58 84 66 34 44 141 119 84 104 63 57 75 112 101 100 40 107 86 70 71 117 127 107 117 110 123 146 144 112 73 90 94
97 126 90 77 67 38 58 55 -9 13 79 146 107 77 48 30 45 78 81 95 85 73 73 47 77 95 52 59 60 107 78 121 122 113 133 163 146 149 134 165 257 0 119 107
143 119 109 76 57 66 137 79 63 185 144 216 177 101 76 43 19 50 56 99 97 103 71 49 43 42 69 66 73 50 108 148 137 156 163 182 220 205 123 143 142 127 168 145
81 56 121 110 202 178 172 218 199 100 148 162 150 121 118 68 21 3 87 80 92 107 87 59 69 79 70 99 86 100 148 149 154 149 201 191 221 149 136 113 138 148 128 169
162 109 123 83 82 158 177 138 188 198 172 137 125 96 75 78 53 -15 88 103 89 125 117 89 95 116 130 109 123 141 126 121 106 118 233 212 173 139 167 147 125 124 146 140
74 75 99 105 51 59 86 147 152 114 103 93 93 110 85 42 29 32 126 145 190 201 224 216 229 172 147 152 169 132 153 185 168 172 163 136 140 136 109 180 195 169 213 171
65 70 98 111 176 175 169 188 150 176 158 136 108 84 50 50 43 139 200 175 203 201 160 146 192 54 102 126 152 210 206 178 173 156 108 86 96 117 117 191 292 320 292 203

GFSCGP_con_3kmhel_006.txt.gz
Helicity
-31 -51 -9 0 0 26 8 11 89 24 108 105 126 75 48 12 51 64 90 82 92 91 76 67 91 56 20 48 46 46 58 45 47 38 24 30 30 28 18 25 32 28 24 27
-36 -43 9 5 5 18 30 26 10 15 73 15 87 58 19 9 38 64 73 85 59 88 188 85 86 9 51 60 86 41 44 26 23 29 57 40 40 30 42 14 23 12 8 55
-21 -12 18 -1 -16 -21 -10 -31 14 4 66 44 32 104 188 29 9 59 40 80 65 111 160 102 73 31 61 67 73 47 57 53 35 68 82 80 40 34 14 46 47 134 138 141
-6 9 -7 -18 -21 4 -9 -2 44 -27 50 31 104 42 295 -37 33 19 55 105 46 88 113 115 59 40 60 99 61 85 45 48 61 73 64 146 114 72 85 55 97 83 47 61
-9 0 14 -26 -26 -29 -37 5 -2 -25 -29 2 10 33 168 67 146 112 65 66 26 80 57 111 93 74 51 124 83 99 62 71 115 89 83 99 88 109 128 102 53 28 42 31
12 18 -1 11 -7 -19 -12 20 13 7 -23 -36 16 7 111 187 118 196 55 41 52 52 67 77 116 157 73 153 107 97 138 103 83 77 58 53 57 78 89 96 73 40 76 54
-16 -10 24 14 4 -17 -5 2 12 14 12 7 10 28 32 92 29 137 198 -73 34 49 75 62 114 204 196 266 137 172 139 116 91 44 41 33 74 91 65 64 53 63 70 108
16 -31 20 6 -21 7 46 -33 -12 10 0 40 39 67 32 45 89 109 158 -31 84 135 96 136 88 204 291 372 240 183 152 144 105 65 66 75 42 22 81 97 116 77 78 96
30 -32 56 -13 -13 43 55 -49 -29 -9 0 21 48 56 28 92 105 114 49 33 123 103 96 158 157 253 320 359 331 256 175 144 127 122 105 78 53 41 49 93 97 76 109 93
26 -11 51 8 21 19 6 14 8 -13 17 14 19 44 76 165 69 41 45 45 32 132 149 110 136 252 333 331 352 320 172 148 137 146 114 43 87 111 79 111 87 82 79 79
-15 1 50 30 85 -10 23 25 40 -4 0 -4 3 142 86 71 33 26 30 31 36 10 82 155 132 255 347 291 330 340 180 173 164 128 108 102 125 96 108 117 94 82 78 86
22 44 27 92 42 14 -11 55 24 21 28 42 38 30 80 55 54 33 62 27 67 51 31 180 181 231 315 272 330 335 210 188 154 147 132 127 117 80 92 120 117 101 89 86
35 40 61 26 50 53 38 24 31 19 8 13 13 92 100 59 64 58 50 49 65 110 49 124 142 206 270 313 379 373 244 167 144 134 175 141 117 91 92 111 121 96 91 88
46 52 53 26 15 55 72 24 -7 8 69 47 48 93 51 21 66 94 16 33 46 93 115 172 195 134 314 434 463 402 302 153 125 161 157 149 152 118 115 113 103 104 78 80
70 79 43 40 33 47 36 59 44 13 34 35 67 60 174 75 88 77 96 78 39 64 112 148 189 170 268 382 435 421 353 186 162 203 240 189 177 142 129 95 97 72 55 73
92 111 73 41 24 33 18 29 82 55 12 15 25 73 113 53 63 72 86 96 77 81 97 59 152 177 269 370 419 488 430 311 246 237 197 158 136 143 117 84 94 96 84 98
96 105 75 53 35 27 24 16 20 43 54 46 39 66 170 29 68 128 119 83 64 69 109 46 105 148 294 438 476 484 417 357 212 167 119 124 115 146 109 83 102 147 129 94
98 96 134 84 20 32 25 18 21 45 48 49 101 65 120 121 82 66 94 48 33 64 60 11 66 118 231 340 382 391 369 270 163 139 105 110 141 129 118 129 155 162 167 192
311 130 107 84 47 31 6 68 184 211 146 59 65 78 112 92 78 115 111 58 129 67 52 35 55 105 172 247 333 340 259 130 111 123 126 124 157 153 178 209 176 180 178 157
36 12 48 52 68 53 24 72 144 270 322 129 198 190 139 124 61 110 151 131 106 77 72 56 81 156 235 306 343 257 145 114 107 126 122 167 193 227 197 172 206 201 215 197
47 90 54 89 100 36 22 20 221 144 116 103 8 105 197 83 97 60 75 77 109 92 86 71 99 156 308 290 270 199 120 73 97 112 181 213 205 214 202 238 255 202 201 173
167 148 114 99 83 68 98 197 157 110 205 142 159 184 117 125 107 126 31 122 142 131 133 92 124 226 233 139 168 152 119 82 113 160 196 209 230 237 217 207 305 207 187 159
86 275 164 99 203 443 138 214 169 163 152 117 171 129 141 121 85 80 60 56 187 114 142 94 166 187 135 131 122 191 176 139 165 205 216 197 222 286 309 295 296 200 153 104
245 262 170 138 165 185 62 132 239 191 161 110 83 108 109 111 95 93 74 53 155 209 141 170 133 184 183 195 249 216 167 102 96 102 144 186 277 269 269 239 194 160 129 212
67 37 55 70 224 107 235 189 128 121 137 148 136 113 101 93 85 73 72 44 190 194 335 255 338 455 630 584 569 424 162 38 42 137 188 191 167 156 147 310 210 164 243 247
2 48 33 110 115 127 174 140 151 204 181 124 137 115 87 108 114 101 164 230 394 165 465 514 522 387 279 137 32 93 131 121 148 128 123 132 118 75 95 147 177 364 235 185

GFSCGP_con_3kmhel_009.txt.gz
Helicity
32 -95 -140 -9 45 24 -25 17 161 53 43 146 83 185 74 44 105 73 131 190 191 193 299 229 108 91 119 75 46 51 29 35 91 73 40 31 20 18 11 6 18 26 33 41
-71 -107 -57 31 58 10 -41 74 212 22 160 195 122 163 23 170 78 175 180 162 134 152 295 230 132 78 42 52 47 77 90 87 100 72 50 60 61 34 43 32 12 38 45 34
-80 -61 8 70 66 -24 -33 -55 82 125 48 108 145 147 345 112 -8 51 239 212 91 257 268 184 115 83 91 83 101 63 33 20 20 36 58 76 68 42 71 95 145 114 73 114
7 41 24 53 5 -30 -50 15 53 12 200 98 200 177 234 152 -137 81 235 235 161 346 297 258 123 104 184 117 84 70 44 20 19 41 63 107 114 119 116 165 147 109 64 49
-26 -80 -13 28 26 17 -16 14 33 20 -44 54 152 172 93 113 -43 105 184 219 200 419 421 313 191 57 184 158 117 99 66 33 24 81 95 100 103 156 190 174 111 43 80 58
20 26 8 -5 34 14 33 62 28 18 -2 -132 45 123 178 200 193 70 246 187 199 353 391 327 275 147 247 224 181 144 129 100 100 94 67 57 34 52 129 133 90 85 72 89
1 -45 25 36 70 48 61 67 15 41 55 -8 1 -92 43 150 177 214 148 242 218 284 363 353 332 262 367 420 276 215 195 122 91 78 65 56 59 47 28 51 84 91 98 134
52 42 -45 -33 33 19 53 31 55 -28 22 13 13 17 151 146 131 107 151 125 153 263 282 295 290 323 476 511 554 329 249 173 113 93 87 91 88 40 7 32 101 118 106 123
58 14 10 27 113 72 -18 51 49 -9 29 44 33 255 90 108 69 47 84 95 57 68 124 240 302 421 498 545 638 555 322 260 180 123 139 114 65 41 64 82 89 118 156 130
-32 46 -8 36 78 -14 87 141 101 22 -6 -69 24 128 142 261 168 115 41 95 26 -32 94 304 347 447 433 593 608 567 423 316 258 198 162 112 73 46 55 83 78 100 114 105
-76 12 -9 88 131 6 98 139 95 55 90 38 13 74 41 244 175 120 103 86 12 56 248 504 305 300 503 677 578 575 488 378 324 285 181 117 60 60 94 97 77 100 100 87
-13 -40 -130 94 128 118 53 114 98 78 45 17 28 30 149 140 165 206 117 111 100 111 151 323 352 330 542 677 522 534 530 436 338 311 195 152 129 105 90 92 88 99 95 79
15 36 16 33 142 184 102 40 106 134 95 38 82 54 81 106 109 133 143 79 53 42 93 248 312 279 433 554 585 637 518 432 353 305 257 202 150 101 81 104 96 83 69 67
31 31 46 73 69 162 105 12 81 143 192 62 53 174 291 242 212 140 176 88 23 52 122 271 334 400 370 504 604 624 490 431 330 291 266 217 146 127 99 84 63 49 46 63
86 56 54 60 65 55 92 120 84 84 62 125 103 265 227 211 249 168 144 121 106 74 78 170 374 434 448 466 592 569 489 397 284 260 267 222 154 151 120 106 58 27 41 56
57 124 101 119 73 41 62 41 106 29 65 80 63 101 185 241 403 231 214 181 134 78 34 87 140 389 413 475 649 666 590 398 321 305 309 252 184 170 148 112 47 41 55 69
245 239 275 169 125 139 90 55 66 43 191 167 103 66 222 242 175 135 132 184 138 72 71 122 85 146 342 467 669 691 707 264 378 435 387 288 216 191 145 104 100 89 108 123
325 378 311 259 207 144 89 37 28 -8 60 339 270 173 175 200 120 133 122 111 89 66 52 19 23 101 274 468 704 810 643 486 501 515 355 226 205 186 138 142 171 162 171 140
126 256 265 316 242 197 190 109 89 58 153 130 260 265 261 277 503 412 146 95 121 122 81 45 51 136 311 467 536 761 616 509 499 434 199 162 188 147 165 208 218 192 207 147
139 176 211 257 297 339 164 79 162 169 191 144 164 356 265 194 256 212 167 136 153 90 96 77 77 170 325 467 606 689 567 419 319 247 90 156 163 181 212 242 234 234 249 169
167 137 137 202 258 260 135 51 123 74 108 15 11 101 286 242 73 42 45 23 50 72 76 108 102 184 274 463 611 507 362 215 156 85 144 163 168 199 203 215 260 280 306 298
83 157 222 245 211 192 240 154 118 154 295 265 278 265 268 140 96 87 76 28 41 70 110 175 167 225 344 516 546 426 224 113 99 135 168 181 179 170 205 254 283 321 375 255
212 304 103 185 304 261 202 470 655 534 431 343 269 286 277 346 281 239 210 62 38 110 198 221 246 458 539 455 471 479 433 341 316 164 122 124 117 156 248 313 332 308 322 298
-2 188 148 160 358 320 353 366 415 683 557 184 241 240 229 179 147 109 92 82 111 268 554 561 625 671 522 435 473 460 461 262 206 480 174 126 69 133 237 424 320 282 201 141
114 124 168 194 312 186 248 234 -41 -36 263 212 172 147 169 118 112 74 56 134 220 389 618 565 496 313 335 157 297 350 295 218 219 118 203 131 19 147 244 264 213 193 149 122
7 -8 84 177 293 286 167 249 83 162 235 182 158 185 142 95 59 68 76 172 243 296 277 318 324 264 278 173 119 95 84 124 -36 9 66 64 119 140 196 238 270 313 228 197

GFSCGP_con_3kmhel_015.txt.gz
Helicity
62 -123 -192 -130 -8 79 4 2 123 89 83 123 99 145 190 125 140 100 70 41 28 27 88 153 153 195 172 124 117 95 75 23 90 78 56 33 36 31 24 19 17 47 59 58
145 -190 -149 62 66 73 97 48 47 57 173 220 149 106 163 159 123 132 96 73 62 37 61 161 180 182 236 157 106 80 65 64 84 70 66 47 49 58 57 83 84 79 68 68
159 119 -40 38 35 11 63 50 22 78 208 226 205 108 124 66 29 69 122 115 86 106 123 132 197 217 180 159 104 107 88 84 32 28 23 20 28 33 35 49 74 93 85 103
180 78 -15 69 56 54 37 79 70 110 249 225 277 166 71 134 60 61 96 94 104 91 115 173 199 166 168 118 61 91 67 14 -5 32 39 55 47 44 21 36 65 117 113 131
270 165 64 77 -6 25 51 60 76 86 146 347 236 250 138 227 84 85 200 161 151 182 190 176 210 183 154 103 69 41 30 -6 -4 36 41 47 25 11 22 47 95 101 102 110
146 228 14 29 5 10 47 37 85 106 197 136 242 279 176 263 242 219 167 180 265 263 247 214 219 161 122 86 100 56 56 8 21 34 27 54 52 48 75 78 66 81 95 99
171 188 164 -14 -19 16 45 83 109 102 182 151 162 193 88 181 256 299 309 240 266 369 270 275 231 203 139 99 116 115 100 71 50 70 63 61 91 122 125 104 74 91 120 130
172 82 83 123 -0 -63 -8 97 115 154 151 138 189 218 133 111 143 216 242 238 296 370 348 306 328 312 217 146 124 143 129 117 119 120 104 101 124 124 99 88 75 82 89 101
193 109 121 46 51 -38 9 65 66 178 106 122 180 138 98 63 32 172 257 220 196 280 369 387 379 402 312 225 194 270 186 170 185 171 174 153 153 129 92 69 78 83 66 75
149 100 102 71 56 67 94 32 103 144 192 134 140 167 88 77 -16 182 173 142 117 190 283 345 405 395 369 369 255 247 300 256 270 281 244 193 211 170 111 104 93 94 75 79
185 139 135 93 101 40 118 140 155 75 137 151 84 75 77 14 59 183 131 116 105 155 231 316 410 475 469 430 358 328 341 355 354 329 369 252 219 240 154 137 103 82 86 80
159 129 81 124 109 87 62 127 110 171 155 182 131 84 53 48 73 141 133 96 110 134 268 315 354 420 423 463 438 453 407 457 449 394 422 393 319 265 201 135 86 76 57 63
239 188 134 146 62 58 68 58 67 102 207 198 147 111 116 90 70 102 127 131 168 123 196 242 296 318 343 431 466 510 560 543 616 533 555 469 389 281 228 165 82 64 53 54
242 253 152 94 71 96 94 49 111 129 204 156 145 153 147 80 92 80 52 148 194 186 222 306 255 230 281 392 513 628 597 616 696 645 694 649 490 287 198 160 97 69 61 67
312 169 201 57 74 95 98 75 78 160 170 160 120 171 132 94 116 114 87 111 197 171 136 205 172 152 192 270 465 552 503 624 681 760 735 722 634 252 133 161 125 71 78 53
248 211 163 117 88 114 85 106 72 104 148 248 220 184 119 149 247 206 153 208 225 242 132 135 95 137 180 266 443 481 497 566 660 694 705 796 485 217 89 36 88 85 78 56
111 162 212 44 104 111 151 70 46 232 230 213 231 131 153 162 178 183 217 241 247 192 155 120 107 166 195 287 391 430 483 487 538 630 773 852 669 215 219 33 27 76 35 98
97 122 221 113 141 104 65 40 98 223 245 269 209 126 97 143 163 219 257 363 244 184 157 79 127 60 58 126 232 347 418 459 562 679 790 824 640 292 136 -5 60 57 100 135
-3 130 188 146 122 89 259 309 300 336 268 187 131 143 75 135 363 315 270 251 222 191 132 127 96 58 39 85 206 326 412 419 542 677 732 474 421 234 83 81 66 85 134 145
29 86 147 212 210 183 313 402 385 332 261 147 131 142 87 165 177 231 323 251 181 131 108 94 99 75 89 70 193 332 385 402 362 479 456 372 194 159 176 124 131 154 149 139
151 155 233 186 284 338 336 345 276 284 288 381 233 184 184 215 198 328 279 239 183 145 158 142 120 111 73 109 200 303 344 332 343 323 343 267 209 208 205 91 46 15 123 188
146 162 300 318 315 351 533 445 368 323 350 276 409 463 471 469 379 414 408 381 316 255 196 119 97 78 107 148 221 288 320 316 339 300 264 253 266 291 211 101 137 38 34 -75
20 51 47 163 256 323 491 520 410 381 451 431 434 476 522 587 468 447 421 402 362 264 173 87 46 76 187 222 248 291 278 298 317 299 279 291 235 205 99 222 245 415 134 56
275 70 92 80 127 185 285 333 396 378 307 353 396 435 468 509 523 478 395 292 213 130 66 72 118 181 221 277 310 288 239 234 248 251 279 245 171 158 92 115 150 146 202 214
190 154 58 151 201 193 133 151 270 287 280 277 292 203 195 228 242 241 149 85 -7 -27 32 36 47 89 153 201 188 146 155 185 220 224 198 210 217 272 324 292 211 110 166 117
108 73 135 79 68 124 201 283 158 103 186 189 132 83 130 194 219 147 133 137 96 81 -28 -79 13 48 72 126 163 171 201 225 220 135 137 139 130 163 112 87 107 200 167 170

GFSCGP_con_3kmhel_021.txt.gz
Helicity
176 7 -44 -53 75 35 13 24 23 22 -7 17 97 48 10 84 140 146 95 60 34 24 6 -16 -17 -15 -23 -27 -10 7 23 25 10 8 7 4 19 18 11 7 6 7 2 3
161 -120 88 83 77 71 18 15 27 63 48 -8 -0 78 25 105 170 165 143 107 92 34 -14 -32 -38 -17 -5 6 19 21 33 28 22 16 23 24 30 22 24 26 36 29 18 34
152 99 95 112 97 81 51 -59 -21 36 76 115 23 59 82 62 82 84 70 69 63 59 51 42 23 25 27 18 30 51 57 54 21 10 -9 3 13 9 33 66 58 43 32 26
139 125 24 74 67 92 12 33 27 61 66 34 62 69 19 69 92 103 81 70 47 35 14 12 19 21 22 34 67 89 65 52 6 -4 -12 14 32 34 25 14 7 3 7 23
193 145 97 30 19 117 66 56 49 62 61 72 44 33 61 3 29 117 136 113 89 25 20 4 3 15 35 33 58 83 73 34 -10 -30 -11 7 -2 -19 -26 -14 -8 -7 2 9
139 160 89 95 82 92 111 152 183 145 97 73 -9 46 15 27 50 85 151 179 123 83 46 21 28 31 16 27 49 63 77 35 -11 -42 -33 8 18 12 2 18 26 21 32 40
162 157 170 133 105 127 136 128 155 136 161 39 61 35 -11 -10 49 108 83 188 266 260 97 32 28 39 27 55 61 67 81 29 -8 -25 -27 -5 15 25 42 40 38 62 63 68
168 210 203 196 150 223 127 110 181 145 149 85 131 53 17 15 90 45 23 38 114 155 191 88 73 78 72 74 81 85 79 52 10 -22 -40 -49 14 28 64 58 63 69 81 76
106 115 181 199 223 163 246 270 111 156 229 136 89 93 72 24 7 14 79 54 122 118 167 160 112 59 58 82 94 115 94 57 35 -4 -24 -16 23 53 64 93 90 95 96 99
135 116 120 124 163 193 205 203 235 217 135 124 113 116 55 66 26 -6 14 97 98 157 168 135 119 97 65 72 117 109 112 127 101 51 15 19 44 81 78 26 95 107 133 98
85 118 136 178 185 176 304 273 258 198 192 120 71 31 63 34 42 37 -9 10 51 155 191 151 141 136 99 77 39 85 110 124 115 134 128 115 108 172 150 146 66 116 96 104
88 94 184 145 117 170 115 129 190 275 238 213 155 95 114 -7 -6 34 10 18 29 52 101 59 53 79 64 70 73 106 177 214 253 230 238 232 256 354 244 140 181 135 127 95
161 137 160 190 132 84 212 169 122 110 168 159 154 119 127 88 21 8 -1 14 19 42 45 40 38 73 103 81 92 123 164 201 245 277 291 305 382 386 408 406 311 149 124 135
138 152 129 147 156 158 221 223 156 131 126 156 147 92 182 127 39 19 24 40 4 49 49 59 65 58 84 94 119 129 130 151 214 314 393 413 412 496 538 570 594 519 402 263
128 116 74 41 44 43 73 121 173 153 153 192 165 158 152 124 58 -5 58 19 45 70 51 71 65 80 110 105 132 114 120 172 240 315 353 409 481 524 644 726 959 842 360 188
152 162 116 82 8 40 38 83 95 117 135 159 133 168 150 107 109 84 49 35 41 51 53 40 27 51 88 110 136 116 117 142 187 259 253 348 405 496 609 808 966 857 588 317
116 129 134 110 39 47 66 64 89 110 99 135 174 161 143 112 90 81 56 64 58 53 53 53 54 102 84 84 102 93 106 119 154 180 246 318 337 374 438 611 677 642 406 281
118 142 176 163 83 118 78 49 66 105 114 85 128 93 104 91 85 53 40 62 43 38 30 54 74 103 91 86 60 90 92 99 115 137 188 220 254 268 347 462 531 474 300 160
174 188 161 138 140 133 99 109 107 95 126 72 49 83 110 104 58 46 67 65 12 40 25 14 42 83 88 104 131 119 93 113 81 100 135 171 202 259 325 371 381 338 204 79
192 164 169 184 144 158 133 188 195 193 165 138 146 106 110 140 100 100 142 90 77 29 23 55 145 210 217 207 172 155 149 102 54 67 81 96 153 185 216 234 246 223 168 103
242 229 221 129 87 100 154 234 198 155 152 155 138 140 143 169 179 171 156 190 156 153 203 271 341 369 329 270 218 177 115 58 16 43 53 96 80 120 126 151 148 160 165 133
177 206 284 275 95 66 148 181 232 177 154 182 187 215 278 256 236 232 243 285 319 336 385 399 456 441 391 328 237 171 118 71 87 86 1 98 102 70 90 99 106 110 113 122
168 164 171 166 206 89 129 204 249 277 352 432 384 306 274 286 277 316 415 423 443 422 458 443 409 356 257 167 127 81 69 70 37 74 134 134 83 107 121 93 102 136 123 123
219 232 199 182 118 171 272 342 398 432 460 463 450 426 427 503 486 525 497 510 443 415 431 320 219 186 115 74 62 33 41 62 61 127 160 117 114 108 77 95 96 103 108 126
291 244 228 209 237 308 337 327 381 349 333 364 366 410 444 455 558 501 398 366 295 230 160 113 103 55 -6 -22 101 137 108 135 214 195 136 136 146 140 168 163 153 139 143 152
357 318 232 57 23 184 203 212 170 170 192 211 164 196 277 184 297 482 546 284 200 120 84 31 18 82 179 149 115 105 94 163 168 105 85 79 100 126 119 122 140 158 143 160

GFSCGP_con_3kmhel_024.txt.gz
Helicity
10 -36 -89 -70 -28 22 18 17 7 15 29 8 47 34 4 4 82 74 78 38 16 4 -2 -0 1 6 3 7 18 10 8 10 3 8 -0 5 2 -6 -11 -18 -11 -12 -5 -3
111 -40 -81 -9 5 28 34 -4 -9 54 29 10 12 49 15 14 77 78 73 82 47 9 -26 -15 -3 -0 9 15 12 13 5 13 11 -6 -16 -20 -17 -5 -3 7 -6 -11 -9 11
129 83 73 25 6 -25 -48 -14 -36 42 28 17 44 54 55 30 29 40 77 56 64 38 26 33 12 12 11 24 16 20 15 20 19 3 -14 -21 -31 -18 -3 -2 -10 -2 -4 -16
119 66 88 107 7 18 -31 -23 33 35 47 38 32 17 17 15 43 47 82 92 71 94 70 44 57 61 56 38 29 15 14 20 16 11 -19 -19 -24 -22 -27 -39 -43 -46 -43 -42
172 157 149 98 43 50 -38 23 43 35 46 40 59 55 47 56 -42 21 78 117 113 82 70 78 89 78 73 49 21 3 -0 6 -2 -3 -36 -32 -41 -58 -59 -46 -37 -31 -10 -16
116 109 140 128 128 105 66 56 44 34 48 -57 -1 14 25 30 8 -3 22 81 113 133 106 61 40 41 30 16 -10 -25 -8 -2 -2 -15 -37 -56 -65 -54 -42 -13 -1 2 10 19
116 150 140 142 138 104 101 88 95 98 91 46 39 18 -13 48 24 13 7 59 88 95 132 129 67 69 46 26 -7 -27 -20 -9 -2 -15 -40 -57 -56 -37 -21 -3 -10 -11 6 21
139 178 135 160 134 146 113 59 85 81 77 79 61 37 -61 27 21 24 18 21 62 59 87 131 132 84 69 45 16 1 10 8 6 -0 -32 -55 -51 -41 -21 -8 -19 4 17 30
116 76 66 105 153 96 131 128 38 31 46 51 51 86 9 39 14 12 9 11 11 62 76 94 112 118 86 57 40 51 46 38 32 14 -29 -48 -46 -28 -23 -7 21 32 59 74
49 104 57 57 79 114 87 108 99 66 59 50 32 36 56 16 -4 -8 -2 9 18 54 69 60 67 114 118 80 37 31 50 66 39 15 6 -23 -17 -4 17 39 24 54 95 121
-6 60 47 73 129 169 185 143 96 68 77 61 53 36 36 29 18 21 16 15 17 27 66 80 82 55 118 86 47 25 29 18 13 56 93 73 86 93 88 101 66 205 115 119
-4 62 95 45 48 44 78 115 110 176 106 84 43 28 6 16 20 -5 -4 19 41 41 34 86 109 50 46 78 64 41 23 9 36 95 158 148 176 208 197 174 145 266 285 141
10 39 78 81 36 35 64 76 84 111 104 102 98 52 40 26 61 40 1 15 13 28 21 21 62 82 33 75 76 65 30 27 77 110 143 178 228 302 268 242 319 329 336 287
160 48 52 107 109 100 136 93 65 83 149 120 85 58 43 20 18 12 45 34 2 17 10 21 64 49 44 75 81 64 40 37 68 119 154 223 320 368 306 371 507 524 476 475
125 128 65 20 25 32 47 59 90 114 95 109 83 66 88 53 33 35 31 20 24 8 15 47 70 61 66 80 76 32 28 51 73 92 130 203 276 299 267 400 495 641 659 672
121 150 109 74 35 39 54 46 48 58 82 104 82 97 58 79 36 25 25 20 23 26 39 47 63 78 58 62 65 72 72 76 88 108 102 137 150 154 191 285 452 611 678 710
112 134 117 88 40 32 46 39 42 48 63 64 136 142 92 87 73 55 46 14 47 32 27 40 61 86 69 71 83 80 82 79 82 73 102 102 101 97 84 177 292 548 550 526
198 120 97 79 31 69 56 29 38 41 49 52 60 52 74 71 97 80 88 65 57 42 33 51 41 84 88 89 97 96 77 97 116 120 92 87 96 57 91 139 229 300 362 408
147 219 126 91 77 59 43 54 81 24 25 42 52 62 42 43 68 132 98 112 75 81 76 86 50 103 104 112 120 106 125 132 147 117 76 82 52 62 105 129 155 189 223 238
104 136 194 119 68 55 169 223 197 173 94 29 30 60 40 74 119 102 89 83 91 107 90 110 75 119 90 102 146 173 183 187 170 106 70 43 36 60 75 110 159 188 169 167
182 179 148 130 100 104 211 139 65 93 87 257 34 37 72 63 97 116 129 129 153 135 116 116 127 115 153 206 257 286 246 234 197 137 98 56 46 60 90 139 143 160 122 99
136 196 179 129 144 111 244 106 142 193 119 78 88 131 116 125 151 154 129 200 200 159 170 222 251 236 272 317 323 341 317 267 197 112 59 56 97 156 131 152 137 140 127 112
68 78 118 208 182 188 139 163 115 139 93 97 80 96 90 82 99 160 223 259 217 239 233 201 227 321 376 319 241 268 310 171 92 88 84 138 128 110 164 156 149 154 125 123
174 140 145 133 192 215 130 223 230 173 143 180 296 287 248 243 221 237 331 346 389 407 427 393 360 355 352 299 286 239 149 121 89 90 133 162 219 277 226 151 108 128 153 123
260 221 102 179 128 213 313 417 478 477 328 254 294 350 348 365 400 364 418 414 402 463 413 394 346 302 270 223 159 99 75 88 122 104 160 257 283 294 278 260 221 181 176 144
247 281 124 89 157 239 331 468 315 341 195 192 268 338 363 330 383 336 403 398 385 416 365 319 269 216 202 137 126 133 120 134 169 224 244 226 200 189 176 176 202 220 178 138

GFSCGP_con_3kmhel_027.txt.gz
Helicity
44 13 -44 -48 -29 1 12 20 -1 7 85 3 -1 14 45 56 6 11 34 22 23 -5 9 11 13 28 37 35 45 44 33 54 43 30 14 -7 5 38 -6 -19 8 19 6 -4
92 -20 -36 -33 -22 -30 8 -17 -0 26 88 11 4 -8 -8 79 6 -1 3 37 17 20 -3 7 23 26 44 60 81 69 61 72 40 36 -13 -18 -7 22 45 35 17 26 33 28
69 69 -23 -8 -38 -28 -42 -27 -4 -1 96 55 24 -9 -25 30 61 19 -2 -8 36 16 30 42 42 32 50 71 80 88 70 83 64 -23 13 1 -26 -15 5 -2 14 39 26 32
-2 19 39 2 -27 -20 -26 -44 34 -1 176 42 35 -2 56 33 46 44 32 10 14 82 24 24 88 74 53 80 101 94 98 79 53 6 -27 13 2 -7 6 1 -2 24 15 -8
34 25 37 36 -34 -28 -30 -11 -8 9 97 26 66 -8 8 31 59 51 27 31 17 31 66 65 69 124 73 66 95 111 105 95 37 33 -24 -20 -26 -25 -48 -33 -12 -26 -6 -22
-34 35 -18 47 32 30 17 19 7 14 31 17 31 93 -3 136 24 37 56 37 34 28 48 61 36 61 109 63 64 94 125 82 51 26 22 -45 -34 -54 -68 -22 -13 -15 -4 12
12 -23 33 39 62 48 30 8 45 62 74 -4 48 112 20 26 79 15 19 55 57 43 44 97 103 93 125 119 88 54 114 71 31 19 14 -3 -43 -36 -73 -47 -3 -7 17 25
52 97 -20 50 49 48 36 9 50 73 61 32 -10 29 16 51 37 45 34 16 74 76 70 75 114 110 140 153 134 72 92 86 31 33 23 13 -16 -29 -30 -2 -18 9 6 39
64 43 40 40 43 12 60 72 29 16 24 32 42 55 29 91 54 37 20 15 44 74 58 85 95 109 132 177 152 144 72 80 49 34 36 17 8 -18 2 2 35 -15 2 89
-9 26 48 37 29 32 16 81 60 58 50 46 40 25 70 77 52 29 35 18 8 47 66 45 91 126 127 170 127 115 99 75 73 60 53 36 29 5 12 48 75 36 78 69
-12 20 30 28 88 46 59 35 89 59 53 43 52 38 51 69 46 18 10 6 6 32 60 59 64 102 171 140 177 113 96 66 57 65 72 66 66 46 54 105 125 107 141 164
34 39 50 34 33 47 28 46 32 133 68 68 16 24 72 54 79 27 -2 16 34 17 37 89 75 64 135 199 109 151 90 68 47 48 69 106 126 146 156 174 212 190 247 264
55 34 52 53 23 59 62 -9 32 42 81 91 69 57 17 63 55 39 21 25 13 53 74 77 41 81 172 260 175 135 166 73 78 42 59 107 151 206 256 280 288 283 369 385
155 60 50 89 55 40 58 39 15 46 99 113 77 41 39 42 51 54 56 47 46 43 37 33 23 20 171 185 249 154 223 87 81 54 64 133 188 225 265 313 320 369 458 477
122 111 31 31 9 16 28 49 32 21 66 79 71 53 36 39 39 52 52 36 12 21 39 36 14 12 146 171 148 196 182 131 89 107 106 163 214 219 259 301 309 371 402 411
58 104 52 39 34 23 26 51 40 38 40 46 44 38 60 34 32 47 67 39 38 46 25 51 29 28 118 133 145 166 134 140 120 157 159 191 230 269 277 240 216 317 269 326
37 67 78 90 31 32 38 25 44 74 41 45 57 57 53 45 51 51 71 43 38 30 23 26 66 46 94 131 143 133 139 142 151 171 206 243 286 235 197 138 101 256 262 367
56 65 63 69 34 54 66 30 31 37 40 50 42 35 51 61 57 25 54 69 55 42 41 29 91 71 64 98 124 143 138 179 191 178 204 289 260 202 134 72 96 154 182 250
52 57 80 85 69 50 29 -2 14 34 32 35 27 38 37 41 42 54 70 70 67 64 58 27 37 112 108 97 203 180 171 170 193 193 251 264 190 141 104 71 54 108 147 223
62 96 78 77 48 36 23 197 214 143 120 58 57 62 34 39 89 99 55 56 36 58 64 53 60 94 168 191 167 214 152 164 229 197 217 212 167 116 84 56 64 120 131 153
97 118 102 80 77 29 142 187 93 122 104 135 107 74 88 64 60 54 49 72 113 84 102 81 107 163 303 219 251 237 232 215 196 209 238 193 138 130 104 107 104 165 168 193
110 163 124 97 60 104 171 86 89 145 69 110 95 98 81 73 37 18 102 86 93 93 83 91 100 218 283 245 325 280 272 252 300 278 211 179 175 129 137 135 120 161 181 174
102 126 114 75 69 91 167 219 155 153 127 106 78 49 60 83 117 129 166 109 26 -14 10 76 223 413 300 315 328 362 348 286 295 294 263 182 192 154 134 161 178 188 182 208
106 56 62 141 213 240 254 189 145 88 69 40 72 63 68 92 152 215 194 157 116 126 166 282 339 335 300 303 350 341 353 321 272 248 189 123 107 164 134 158 175 184 180 208
183 335 103 266 229 177 177 181 100 104 168 176 241 282 366 354 257 206 296 309 237 176 179 152 240 298 315 303 307 265 216 165 158 122 99 104 143 168 279 392 399 299 265 194
56 133 281 179 71 154 176 227 252 278 352 424 332 373 437 280 214 231 379 422 365 322 252 175 197 245 233 222 207 160 117 91 77 76 106 126 134 147 160 212 272 338 250 224

GFSCGP_con_3kmhel_030.txt.gz
Helicity
3 33 -15 -34 -42 -0 35 3 42 151 173 13 116 147 -39 -173 7 22 36 31 25 7 22 20 35 59 58 83 120 133 95 71 172 153 97 27 -7 6 5 -19 82 152 18 33
4 12 -14 -22 -24 -16 31 -0 -1 133 206 -4 49 134 32 -103 42 26 50 65 33 28 16 28 73 35 93 104 149 166 125 129 151 137 106 24 24 15 104 24 39 58 16 55
11 32 -18 6 -27 -23 -17 -10 -17 79 90 -11 23 19 46 84 76 22 23 100 92 53 44 93 80 71 102 150 195 208 154 138 140 103 63 -19 37 31 32 31 4 55 83 74
20 -38 35 -10 4 -30 -33 -15 31 17 72 84 -10 -5 52 42 118 103 97 -12 86 111 70 56 166 190 117 169 222 224 188 145 127 26 42 38 13 -15 -11 12 9 84 113 54
26 1 -53 44 -26 -29 -40 -15 6 30 2 96 139 50 24 32 60 110 90 31 -9 91 96 55 148 260 217 187 273 291 229 155 123 59 29 7 41 -6 -44 3 113 62 82 37
-16 -5 -21 -18 21 -39 -6 13 24 23 21 42 117 153 26 180 101 111 110 41 36 -2 104 120 77 212 322 246 276 306 325 208 157 100 34 -8 28 -44 -22 -26 22 10 23 19
4 -46 -21 -38 13 3 -19 -6 55 64 59 14 62 235 110 46 185 109 140 31 69 53 34 151 177 165 353 342 307 332 384 285 184 140 61 1 -33 -8 -62 -45 -6 3 8 70
24 43 -41 9 -53 -14 -2 -14 86 101 63 41 18 57 174 116 169 154 -15 -39 24 73 58 131 222 191 279 346 345 343 426 350 223 142 82 34 -16 -9 -28 -29 -24 13 -0 71
65 27 24 -31 34 -61 7 38 7 9 8 29 38 82 49 84 140 144 77 38 102 116 38 125 185 232 218 325 351 370 417 391 245 154 86 53 34 24 20 -2 -13 -20 -14 63
-8 16 36 34 -24 11 -45 33 43 42 48 60 35 44 74 212 304 53 13 51 82 39 79 116 123 211 253 284 343 320 346 378 264 161 103 66 63 46 26 14 20 48 40 147
9 -10 1 32 97 14 56 -20 1 56 40 68 58 43 30 211 171 129 132 154 17 43 85 128 148 214 285 308 363 325 285 289 242 164 105 66 65 72 72 70 106 139 91 162
50 58 51 -41 42 63 24 74 -51 62 80 86 12 40 9 72 149 153 54 38 42 20 -20 88 178 179 282 330 396 395 263 230 201 180 105 82 83 91 109 137 181 224 204 257
72 89 91 30 -14 31 83 33 58 8 20 81 101 33 -68 72 329 57 67 22 11 -4 114 110 144 185 271 349 400 484 345 220 170 160 114 70 94 124 147 169 185 271 316 333
86 81 101 113 89 21 46 58 42 10 83 75 71 86 11 32 24 14 110 10 61 47 83 99 123 97 252 317 431 539 512 283 183 162 136 110 109 156 194 195 212 233 357 413
110 125 112 83 8 8 20 42 57 48 36 68 70 71 94 7 86 103 39 84 65 70 67 108 79 109 85 174 361 493 465 386 263 192 134 132 154 159 168 197 259 251 312 392
119 135 149 110 31 16 21 33 25 81 67 38 26 38 45 49 20 79 134 37 51 115 91 55 115 76 31 114 349 462 449 353 328 269 218 145 170 186 202 239 264 306 326 411
130 139 149 201 64 31 48 -13 34 39 65 64 55 37 45 61 47 60 90 67 42 166 81 63 76 101 73 102 297 345 393 339 320 327 273 199 214 240 250 252 263 300 317 337
96 123 135 171 79 97 86 45 35 31 39 60 57 60 52 71 65 37 19 66 136 63 103 94 104 102 124 89 169 284 302 277 277 306 296 258 261 285 276 270 263 233 222 252
54 180 110 129 91 106 55 49 34 46 34 42 57 65 46 75 40 30 45 19 37 80 34 108 116 63 138 144 172 246 266 236 214 248 268 300 311 379 364 296 234 169 177 186
31 114 58 99 75 98 50 20 3 41 71 44 35 35 56 113 89 81 71 51 35 25 39 75 67 91 46 278 257 260 274 268 201 225 284 341 384 425 368 247 181 115 130 168
99 117 104 85 125 84 69 44 74 123 141 190 209 168 169 123 121 66 131 62 77 56 79 96 106 119 142 218 326 302 283 334 274 287 368 424 399 349 242 192 147 119 111 140
210 187 101 91 74 103 77 105 120 170 119 147 188 179 163 180 119 84 99 54 141 203 158 185 181 150 99 207 260 329 333 410 407 324 400 427 367 282 247 180 128 135 178 212
142 108 92 93 82 72 201 270 204 150 133 153 84 98 81 49 57 77 131 197 140 152 159 188 174 172 187 346 384 442 521 506 406 344 387 409 300 298 256 236 190 209 242 237
95 -7 71 49 37 -17 109 170 73 141 138 99 96 84 25 42 59 97 115 93 146 159 188 164 225 286 313 389 425 531 685 600 456 408 327 320 345 275 214 178 160 141 193 178
88 134 154 80 121 164 159 143 172 161 172 186 250 253 306 293 325 371 434 345 195 191 256 296 369 342 384 489 570 587 584 447 382 325 308 290 244 222 251 271 256 240 253 185
-17 -24 101 160 549 483 325 416 376 313 330 193 216 303 420 378 410 394 379 480 550 408 302 336 406 425 365 330 305 231 258 242 219 208 153 136 172 181 198 235 290 322 219 190

GFSCGP_con_3kmhel_036.txt.gz
Helicity
56 139 10 -67 -101 -35 -40 -69 -65 7 22 149 132 257 370 302 215 380 328 337 145 74 -2 63 156 151 99 120 175 199 189 122 80 85 85 50 27 6 19 35 11 36 65 60
-49 -29 26 167 166 61 -132 -113 -104 44 78 184 209 251 245 268 273 276 408 376 228 86 35 49 186 214 188 238 217 213 211 164 146 126 97 36 8 -23 -18 -32 -22 28 52 60
31 73 95 143 152 146 -33 -123 -143 10 22 90 159 150 -25 70 162 103 237 364 322 242 155 115 167 253 257 246 284 273 257 227 216 193 144 43 -12 -53 -0 4 -25 8 67 83
-33 -74 -1 -14 -20 35 -76 -138 -59 16 44 -49 141 46 34 -25 -4 -0 256 301 341 319 244 220 284 279 281 269 263 284 296 279 247 235 172 140 97 44 -23 -16 19 37 71 80
83 64 -15 37 4 -21 -64 18 -25 21 87 97 114 164 167 -40 25 -56 94 259 305 295 301 318 333 422 402 364 319 291 306 301 265 231 204 175 111 61 -0 -42 19 34 65 69
54 -4 59 39 -35 -21 -4 34 76 68 100 59 16 142 201 -14 -17 28 21 146 250 271 250 320 405 402 440 427 418 411 407 323 275 252 226 224 160 84 20 -28 -14 -6 11 52
52 -21 22 51 18 -61 4 10 72 103 157 19 6 106 107 79 61 100 112 125 184 252 248 286 300 342 398 468 488 487 452 399 314 281 249 231 180 104 50 18 -4 -1 32 64
141 80 -26 -32 24 -3 -11 -2 -16 205 219 115 91 196 26 70 99 249 206 206 240 168 284 269 314 351 441 509 566 579 510 416 364 298 266 219 160 83 17 11 29 24 50 74
168 130 87 86 -15 61 -55 -40 8 -76 130 178 149 137 40 65 176 90 187 193 217 194 226 261 290 290 417 503 567 595 591 490 397 320 260 196 155 110 43 27 23 52 52 53
177 116 54 30 78 12 17 88 84 126 -52 90 132 161 131 109 69 214 164 166 232 257 189 205 230 293 275 464 543 551 564 584 489 360 264 205 154 123 58 29 52 35 20 40
140 182 108 96 120 54 62 15 92 103 82 21 60 -94 49 75 49 160 334 295 320 428 225 271 246 273 302 339 420 504 485 499 438 333 258 200 156 131 99 41 41 52 60 69
42 109 143 99 67 98 29 41 84 97 112 110 35 17 107 97 64 108 230 268 293 346 277 263 234 134 259 384 353 407 474 430 448 426 279 224 175 146 106 88 46 33 75 121
312 98 208 175 105 23 76 68 37 224 222 14 67 143 87 52 -47 90 104 234 346 121 181 231 283 162 269 278 365 417 436 438 405 404 321 221 180 158 108 99 88 90 77 132
179 114 201 134 178 167 190 80 52 51 168 141 -26 157 110 71 -58 -26 102 228 312 170 98 177 103 177 121 253 350 408 407 428 406 392 327 274 219 187 110 97 101 124 145 193
86 208 191 58 58 170 222 185 119 83 72 195 191 201 87 25 12 91 22 139 199 134 115 81 77 157 184 239 322 433 385 412 419 385 375 288 232 207 147 112 117 133 143 193
62 214 187 178 161 54 128 123 114 148 101 129 256 211 203 73 53 43 76 167 160 93 148 177 156 2 265 366 371 307 368 417 460 374 335 360 279 225 181 160 150 175 181 190
-55 174 306 216 241 135 91 82 120 100 187 125 159 270 215 178 85 45 37 75 66 64 187 150 128 143 278 371 466 313 332 386 442 508 356 334 346 297 234 205 219 216 234 278
61 223 260 299 360 285 157 27 98 132 88 115 153 174 204 175 104 155 94 77 103 122 220 116 157 194 268 304 347 281 344 397 435 459 433 366 345 322 298 246 223 245 273 284
83 186 201 340 396 376 336 231 199 175 48 88 71 34 144 141 205 157 131 88 66 155 108 143 79 140 136 149 182 298 295 353 412 409 440 441 389 336 338 307 248 251 280 298
17 64 182 250 544 386 301 307 316 172 215 184 92 65 46 166 100 148 176 113 129 85 140 142 142 227 227 255 161 223 236 340 336 358 416 506 493 400 362 320 295 273 264 293
290 208 149 120 473 476 238 155 209 331 150 120 113 82 116 124 126 191 166 201 186 165 108 126 179 143 135 118 197 217 229 207 224 251 300 434 488 494 402 365 350 359 328 309
159 269 272 200 366 374 475 367 128 150 197 108 135 177 185 181 211 209 219 243 260 275 237 151 154 151 184 272 367 260 256 203 233 261 263 322 463 497 469 438 427 442 362 293
84 203 308 123 107 106 293 390 584 379 233 212 215 212 238 290 253 238 218 239 230 189 191 161 93 104 99 143 197 271 228 278 355 389 374 385 394 430 499 575 533 482 382 379
103 176 215 77 -3 79 360 432 557 509 296 369 242 184 230 236 275 284 266 274 264 234 196 191 174 140 133 145 169 206 254 369 459 465 532 599 580 577 573 590 563 528 433 463
150 78 232 67 -59 -22 241 430 453 353 334 167 343 381 265 235 280 258 254 236 193 153 150 155 185 210 223 206 224 270 330 458 608 708 700 717 700 636 716 810 640 485 435 345
264 156 184 194 65 8 109 410 500 464 461 430 301 329 453 386 286 232 241 192 164 149 138 167 170 184 260 327 333 360 409 504 617 700 745 552 563 593 679 736 630 568 382 216

GFSCGP_con_3kmhel_042.txt.gz
Helicity
124 202 62 41 -66 67 59 45 -56 25 48 -8 31 49 132 321 287 287 263 207 97 73 18 -44 -29 -3 -4 -10 -6 15 26 -0 -10 -22 -32 -43 -5 -32 -29 -24 -12 1 2 27
296 250 67 118 128 111 68 79 -13 -5 30 39 34 23 82 243 349 389 424 225 175 53 31 -10 -32 -27 -22 33 50 48 52 28 19 31 34 22 18 -10 3 -23 -17 -1 4 36
332 215 106 124 173 132 92 -64 46 8 81 94 49 23 69 37 93 99 164 159 67 69 76 5 13 11 7 -3 43 86 97 82 56 64 39 45 74 50 17 3 20 30 29 22
184 73 143 159 58 137 45 55 55 34 43 22 88 4 26 79 137 109 169 187 192 142 56 33 -6 3 56 34 36 54 75 92 91 115 100 117 112 84 40 67 102 68 48 19
230 182 209 133 169 187 102 179 109 100 76 63 92 90 32 53 83 135 181 220 221 232 173 105 97 74 41 90 90 97 106 115 109 136 148 145 132 102 54 76 91 50 9 -7
191 157 171 128 176 146 244 218 192 163 127 -20 -59 -1 -67 38 166 139 187 190 242 269 231 196 122 140 101 81 50 43 104 142 172 167 161 152 145 133 89 70 89 52 -10 -43
129 100 109 140 118 89 114 129 187 162 166 -37 51 36 85 39 143 219 273 206 269 336 321 251 190 92 125 143 205 161 126 152 189 205 172 173 161 160 111 96 99 54 -21 -82
223 179 80 148 124 150 132 181 234 206 213 -9 171 -48 27 -58 31 66 176 218 202 282 367 324 277 245 191 229 193 245 245 163 212 230 215 193 180 161 122 99 100 46 5 -26
202 194 160 203 190 202 297 212 162 274 260 132 177 44 -1 27 55 57 51 88 158 247 274 311 304 285 270 243 301 301 264 257 234 262 283 266 245 189 126 134 133 67 24 -34
165 145 146 75 178 137 202 314 264 230 -7 113 159 138 147 163 126 -9 61 73 103 158 233 279 257 285 252 290 327 358 348 294 315 288 320 320 333 295 193 159 140 92 25 -30
242 195 195 184 205 177 309 250 273 207 248 91 163 148 110 125 73 41 20 42 96 182 258 251 210 236 249 225 264 370 405 398 357 357 338 343 282 271 253 177 137 103 60 -22
269 239 211 149 187 90 171 266 388 336 299 123 5 73 29 -37 73 76 49 43 18 153 233 293 298 214 190 215 232 287 323 369 426 433 419 401 386 326 278 215 138 117 78 18
480 423 314 253 173 172 183 186 274 280 259 -26 114 100 -52 -39 13 -3 -6 37 59 48 131 172 218 245 219 219 250 297 332 349 403 428 397 352 351 350 284 234 177 126 94 54
423 470 427 355 338 350 280 202 189 206 243 77 -64 40 107 34 -57 17 27 31 31 76 76 138 215 238 259 267 298 356 329 316 362 376 403 393 366 393 339 262 224 183 128 101
250 437 448 432 452 349 311 249 209 143 128 133 49 -2 18 57 39 -7 78 59 75 52 71 105 192 258 225 239 288 360 341 340 343 341 332 326 368 335 316 269 227 205 167 136
93 275 289 292 365 356 233 240 221 188 144 81 65 4 126 20 90 103 76 44 96 75 52 58 130 220 256 212 303 395 394 385 408 355 310 336 351 340 287 266 264 223 199 164
74 104 193 164 311 370 173 130 176 136 175 194 74 117 210 94 88 99 46 56 18 -37 -57 50 118 162 141 145 255 349 356 383 368 324 268 302 333 334 307 293 275 235 210 227
-29 6 67 134 192 147 208 135 163 115 94 202 202 173 199 127 109 108 148 109 56 98 14 19 57 121 98 89 173 244 292 342 326 326 297 258 286 279 312 323 281 239 249 258
-18 20 112 176 198 230 420 305 182 187 123 134 188 139 162 141 135 127 92 96 99 87 116 107 38 95 113 50 146 244 284 272 225 201 255 298 340 324 311 285 303 284 289 284
56 -18 75 73 147 47 -6 186 43 -119 183 214 351 195 149 202 170 99 61 79 53 84 56 73 64 94 169 48 173 248 296 381 360 279 256 386 381 362 339 334 321 317 332 322
76 79 30 107 228 208 205 158 84 171 142 186 111 182 125 81 199 75 50 87 77 77 66 65 112 110 121 99 157 181 303 302 342 369 359 332 308 279 283 304 319 333 316 309
68 94 -15 150 200 118 222 196 153 155 166 164 184 145 82 102 27 93 61 87 110 66 56 48 75 114 117 132 196 234 256 202 255 246 245 276 306 325 314 326 347 359 366 381
123 122 140 82 207 186 163 13 71 -29 1 144 148 213 187 62 27 11 117 138 144 134 151 129 130 122 137 97 124 127 141 85 165 173 201 226 233 228 237 262 243 220 258 271
60 70 71 122 68 124 198 143 -17 -46 -16 228 212 213 116 57 112 203 302 351 284 284 301 241 242 228 213 201 157 108 80 68 53 68 92 144 156 172 228 201 210 235 218 209
100 99 61 47 11 132 79 -105 -23 38 9 255 264 153 169 184 267 346 424 445 419 357 358 323 318 290 289 289 293 258 180 102 102 108 92 102 150 254 322 343 303 279 285 235
104 129 42 -94 -25 -16 -1 -70 -66 55 116 235 245 258 262 374 447 447 476 456 445 404 299 278 230 186 160 154 170 233 223 157 151 184 210 234 251 285 325 382 392 449 388 556

GFSCGP_con_3kmhel_045.txt.gz
Helicity
108 177 156 71 85 62 70 48 4 -22 22 31 -15 50 82 117 157 214 218 141 95 109 25 -0 -15 -21 -29 -40 -36 -24 -18 -16 -26 -19 -3 1 6 -3 -7 -10 -5 -14 -4 13
190 204 82 118 92 39 40 18 -21 6 44 60 15 10 13 75 162 212 245 219 110 44 12 -1 -8 -19 -24 -15 -15 -19 -2 -14 -3 -13 12 29 18 13 6 -16 -20 -27 -17 1
263 137 75 50 81 69 -20 -31 8 36 94 24 11 -9 11 19 21 69 130 88 43 58 83 17 -10 -0 -20 -33 -33 -25 -1 12 15 10 -23 -18 -1 10 -6 -11 -14 -15 -20 -10
60 104 43 93 -14 23 -30 2 20 35 49 -1 54 -20 -10 -31 26 53 93 120 110 37 21 26 10 -18 -13 -31 -30 -34 -38 2 6 38 22 50 60 67 57 43 23 4 -10 -2
216 172 175 52 145 -8 -8 34 33 26 28 16 -55 -4 -11 -13 -66 57 61 120 137 110 63 77 63 60 17 -23 -42 -34 -22 -12 10 36 50 49 47 39 12 7 25 16 8 17
119 164 133 125 45 74 96 60 67 92 65 -61 -68 -48 -55 -28 47 15 49 58 111 132 125 56 63 71 35 -14 -41 -50 -23 4 10 46 76 75 75 70 25 16 29 23 21 14
90 128 86 108 74 12 37 11 74 75 37 -24 25 -23 20 13 46 22 26 70 100 142 120 120 69 28 44 42 35 34 46 42 55 57 64 91 86 78 90 66 32 35 23 -0
157 128 116 107 64 148 57 38 100 63 -39 -21 83 -3 33 -29 12 -5 54 62 77 87 142 124 130 96 55 107 131 119 90 74 103 115 94 97 102 88 72 46 33 49 30 2
120 119 73 146 112 128 104 48 21 95 109 48 29 3 -22 53 16 13 41 48 45 10 82 162 206 184 130 70 114 179 207 190 152 122 132 118 128 118 97 90 90 44 32 -19
218 142 123 63 128 70 140 169 208 -17 -16 15 40 38 198 46 120 87 40 39 58 24 29 135 169 206 199 171 160 186 217 241 248 225 144 142 170 160 144 120 108 83 60 -2
252 190 189 154 120 141 237 136 139 89 74 16 28 48 -22 22 74 44 48 62 73 96 99 148 202 244 244 199 164 210 234 221 178 185 187 148 132 157 152 158 129 105 100 41
308 259 231 135 138 94 105 190 189 234 198 54 94 9 58 -94 -7 11 16 56 38 15 71 72 95 177 146 216 209 177 181 204 227 201 213 183 150 177 201 192 183 160 122 85
446 306 213 233 207 147 104 97 88 103 98 -55 32 13 18 34 43 -67 28 57 40 10 12 26 39 113 194 211 233 200 145 121 182 230 222 204 192 202 199 194 183 168 139 85
495 440 387 224 210 336 305 176 108 113 137 36 -33 -16 50 55 8 32 35 80 61 67 72 104 83 95 166 166 190 175 147 110 111 173 221 236 229 243 236 231 194 173 172 127
390 475 502 406 382 345 345 340 323 218 107 7 -24 -30 -28 6 19 4 36 20 86 31 21 39 55 86 179 195 157 171 119 121 117 151 171 214 265 251 204 189 193 176 153 125
259 365 371 420 425 357 293 318 312 291 218 144 16 -17 59 -22 -21 -11 -38 -25 -11 108 73 32 47 10 97 180 168 139 136 169 217 213 212 216 224 228 219 209 188 172 159 135
203 255 287 264 404 388 165 216 240 240 212 171 23 52 36 -22 29 10 44 50 40 32 59 92 69 60 114 178 204 150 149 172 228 248 199 197 215 199 199 219 223 192 187 157
49 93 198 235 262 267 230 263 281 196 120 89 38 40 24 -28 -39 15 26 43 26 10 85 84 122 93 87 106 94 150 150 214 232 212 191 174 197 174 197 200 201 207 235 236
-91 -18 119 208 197 302 358 241 236 256 186 219 147 61 20 -9 -3 5 29 5 11 54 59 77 88 84 81 53 132 171 179 207 215 190 187 193 227 236 263 249 226 227 243 249
-1 18 107 96 183 142 112 158 155 158 109 169 214 151 151 173 12 19 45 26 33 32 83 58 44 83 73 63 58 97 124 185 183 179 202 266 251 271 274 272 253 241 255 249
100 71 10 88 135 153 260 176 64 165 179 170 89 103 127 110 160 118 12 50 -45 38 74 49 42 54 103 92 87 97 81 91 121 161 184 218 243 266 247 218 211 199 167 125
87 98 28 77 103 -1 218 235 198 194 130 100 66 -0 -25 -8 16 39 -57 -26 -15 19 52 45 53 71 68 53 56 81 93 71 132 135 133 168 173 166 173 233 239 190 176 174
69 86 154 115 57 154 207 337 251 133 64 28 66 35 7 -11 6 -18 -36 -21 -37 -14 50 72 83 110 118 85 28 85 129 122 112 75 64 87 122 90 110 130 160 184 190 140
67 86 77 124 97 115 162 155 153 91 109 45 12 -1 -98 13 -19 8 -7 -2 -11 17 76 116 155 192 214 181 124 95 86 101 102 66 53 68 67 91 100 110 105 114 121 174
58 89 64 62 76 113 112 123 95 34 -29 -86 -46 52 90 69 19 8 61 77 122 106 181 205 206 264 292 216 188 149 98 93 84 94 91 88 87 112 194 194 146 103 119 99
38 64 62 10 -3 61 55 104 101 106 151 -16 -23 52 60 98 85 116 158 249 310 295 333 375 370 313 346 306 291 259 211 157 148 158 151 149 160 204 236 268 299 350 222 220

GFSCGP_con_3kmhel_048.txt.gz
Helicity
103 135 156 79 -28 43 66 61 36 19 43 -2 -37 21 12 57 54 38 96 85 98 87 48 21 -3 -11 -25 -35 -39 -34 -24 -26 -29 -24 -9 -2 7 2 6 7 9 -1 -11 -7
139 164 85 63 75 49 47 53 45 35 74 52 21 27 13 45 59 16 55 91 93 26 15 -2 1 -14 -22 -25 -25 -28 -20 -25 -13 -14 -2 2 8 11 12 -2 -7 -9 -14 -11
142 57 44 72 63 39 30 5 47 67 52 47 44 33 22 22 23 -15 19 57 29 21 75 43 13 15 0 -15 -24 -28 -21 -20 -19 1 -14 0 12 15 0 8 9 13 3 1
-4 86 35 81 42 22 -8 19 64 80 77 58 35 8 -2 24 27 -17 -9 -1 61 41 25 43 48 12 15 13 -13 -19 -28 -26 -29 -21 -20 9 22 24 27 22 14 5 7 -2
81 40 75 34 58 43 6 65 31 39 60 53 24 -10 17 39 -37 -21 -17 0 6 80 70 9 55 70 48 27 -14 -27 -33 -31 -20 -18 -3 3 6 13 -7 -7 2 22 13 9
33 48 38 24 27 -13 61 76 65 59 54 -6 -42 -37 3 -14 -33 4 -10 -2 -10 20 54 34 33 47 44 12 -20 -38 -35 -24 -23 -3 3 9 12 13 -1 9 9 6 18 28
63 36 34 59 -8 24 -2 -43 55 96 52 -40 16 -32 -17 35 9 24 13 2 -11 0 31 81 33 42 62 25 0 -14 -13 -12 -1 13 20 36 29 22 22 20 15 -2 14 15
126 92 73 48 2 15 15 -26 18 79 108 -9 40 -9 -21 11 19 51 27 16 27 -4 -8 31 87 76 52 69 51 18 7 10 25 46 64 82 67 20 3 -1 -20 5 5 8
83 68 79 102 91 53 40 -54 -61 98 78 132 28 -4 11 58 19 20 7 29 30 42 -8 16 46 75 58 42 73 126 116 89 71 94 125 115 100 72 31 10 37 -3 9 -2
200 108 92 53 38 43 90 40 5 -68 -33 3 21 9 23 -1 30 21 10 -11 27 40 17 9 3 53 77 96 82 117 142 159 182 162 155 120 110 100 96 90 59 42 23 24
330 221 90 95 98 102 112 88 11 32 -44 -10 11 13 -20 8 24 5 18 5 -11 26 37 21 -8 -12 60 66 75 64 82 90 105 123 129 147 118 85 82 83 113 71 60 51
276 268 247 81 65 52 56 96 82 159 -13 -39 4 -1 58 19 -40 -11 -1 25 17 35 36 36 23 22 22 63 66 89 71 55 56 96 137 148 168 134 97 87 80 85 73 78
376 259 201 163 89 61 108 108 74 68 85 -52 -25 34 76 71 35 42 70 53 79 75 65 42 28 34 47 85 82 40 71 79 60 68 71 69 102 112 91 85 86 102 111 104
402 380 187 149 86 96 106 116 72 81 14 20 -46 21 45 27 69 26 15 62 63 88 53 23 -1 4 28 59 107 104 65 56 62 63 57 82 95 134 144 132 142 134 139 138
502 303 308 323 244 326 293 83 93 110 75 -23 27 -26 17 50 65 82 112 128 60 70 125 109 90 62 59 64 81 171 76 73 53 87 81 88 93 87 98 111 135 138 141 140
415 369 338 381 321 287 306 253 312 216 93 51 30 39 37 2 35 67 44 127 158 128 148 108 71 64 47 35 61 94 86 49 54 68 76 88 92 112 136 122 135 121 128 147
359 420 244 239 191 269 212 198 145 152 173 169 34 68 95 47 25 38 56 21 -6 51 65 93 112 77 54 41 44 79 115 66 59 55 55 58 68 97 120 121 123 124 150 145
227 251 321 374 233 198 115 103 71 60 91 102 91 97 87 47 15 5 12 66 109 117 115 64 84 54 62 41 41 55 79 75 81 99 80 73 84 96 107 122 133 149 157 175
-16 168 285 270 227 405 267 204 210 144 146 123 84 70 63 13 -3 -5 -2 6 28 51 78 67 44 66 78 106 58 37 69 90 76 85 92 106 116 133 156 163 165 162 106 114
0 28 189 223 238 186 184 85 64 241 188 161 205 184 138 99 0 -1 -4 -12 21 22 41 74 59 91 83 96 71 40 71 97 118 89 107 130 129 151 158 151 136 137 123 99
5 1 72 153 234 216 158 63 144 124 240 218 240 235 197 141 103 118 102 79 28 46 50 45 86 105 106 75 75 52 66 60 98 64 62 84 111 139 124 126 125 120 113 112
60 4 -43 59 132 113 145 294 230 235 321 226 228 226 265 195 95 62 75 53 -23 -26 12 54 76 84 53 72 91 108 95 60 83 85 70 100 106 96 87 120 144 120 148 150
132 124 95 74 89 125 198 287 189 208 194 278 198 190 208 145 93 10 56 88 86 -53 -32 42 76 83 62 75 87 101 114 95 81 57 104 129 111 98 67 131 118 119 116 116
76 90 117 190 156 196 199 236 228 269 236 99 152 242 146 176 113 8 -49 26 72 0 2 -5 -2 53 80 81 86 84 81 98 114 99 111 133 116 87 80 119 110 64 84 98
60 83 80 71 65 110 157 175 136 140 210 320 245 123 63 101 144 120 72 44 -30 -1 19 -3 -8 45 102 107 128 113 103 53 54 104 163 135 102 105 111 142 136 77 99 102
19 0 29 61 26 37 44 82 157 101 163 124 162 223 208 155 101 82 50 31 -10 -31 -24 17 26 12 111 177 271 232 156 142 118 135 131 124 134 115 129 133 200 293 247 222